sat.trackr.live / text

‹ back to catalog

GONETS-M 22

NORAD 47229 · 2020-091C

PAYLOAD ACTIVE UNKNOWN

§ Identity

Operator
Country
CIS
Launch date
2020-12-03
Launch site
PLMSC
Launch vehicle
Mass (kg)
RCS (m²)

External: N2YO · Heavens-Above · Gunter

§ Orbital elements

Epoch: 2026-09-20T04:19:52.620960Z

Period
115.86 min
Inclination
82.4985°
Eccentricity
0.0021268
Mean motion
12.42894046 rev/d
Perigee alt
1,477.6 km
Apogee alt
1,511.1 km
Semi-major
7,872.5 km
B*
-8.8852e-4
RAAN
242.9668°
Arg perigee
332.3483°
Mean anomaly
27.6464°
Rev number
26,282

§ Raw data

GONETS-M 221 47229U 20091C   26263.18047015 -.00000113  00000+0 -88852-3 0  99912 47229  82.4985 242.9668 0021268 332.3483  27.6464 12.42894046262823

JSON: /api/v1/satellites/47229 · /tle

For live sub-satellite position, see the globe view (requires WebGL).

§ Visibility from observer

Set your observer location to see the next 7 days of passes ≥ 10°. The values pass through the URL so the page stays shareable.

No JS? Fill the form by hand. The geolocation button needs JavaScript.

§ Radio — SatNOGS DB

ModeDescriptionDownlinkUplink
FM UHF Unknown 388.687 MHz
FM UHF Unknown 388.787 MHz
FM UHF Unknown 262.910 MHz

3 transmitters · refreshed weekly from db.satnogs.org